DLH35M LPPT-EDDF

Flight info

Callsign DLH35M
Flight time N/A
Altitude 36000
Route IXIDA DCT TOSDI DCT ZMR DCT NUBLO DCT RONSI DCT DELOG DCT PEXOD DCT DIDIG DCT TIRAV DCT ERJAZ DCT PIWIZ DCT TSU UN858 OQQAL DCT RANUX/N0442F370 DCT VALEK DCT LIPNI DCT LIMGO/N0432F350 Z111 TUTOV/N0369F230 Z111 RAMOB RASVO1D
Aircraft A321/M-SDE2E3FGIJ1LORWXYZ/HB1

Departure

Time 2026-04-28 11:48
Airport Lisbon Humberto Delgado Airport (LPPT)

Arrival

Time N/A
Airport Frankfurt Main Airport (EDDF)
Time Latitude Longitude Altitude Speed Heading
2026-04-28 11:02 38.77254 -9.13162 351 ft 0 kts 77°
2026-04-28 11:38 38.77251 -9.13178 345 ft 4 kts 72°
2026-04-28 11:38 38.77244 -9.13199 361 ft 4 kts 59°
2026-04-28 11:38 38.77228 -9.13223 359 ft 4 kts 23°
2026-04-28 11:39 38.77207 -9.13227 356 ft 1 kts 348°
2026-04-28 11:39 38.77205 -9.13227 360 ft 0 kts 348°
2026-04-28 11:42 38.77213 -9.13228 359 ft 4 kts 348°
2026-04-28 11:42 38.77282 -9.13247 351 ft 15 kts 348°
2026-04-28 11:42 38.77394 -9.13272 351 ft 17 kts 349°
2026-04-28 11:42 38.77511 -9.13303 357 ft 18 kts 348°
2026-04-28 11:43 38.77634 -9.13320 356 ft 18 kts
2026-04-28 11:43 38.77756 -9.13346 352 ft 18 kts 349°
2026-04-28 11:43 38.77879 -9.13378 352 ft 18 kts 348°
2026-04-28 11:43 38.78006 -9.13411 355 ft 19 kts 348°
2026-04-28 11:44 38.78133 -9.13447 353 ft 19 kts 348°
2026-04-28 11:44 38.78261 -9.13481 353 ft 19 kts 348°
2026-04-28 11:44 38.78397 -9.13518 353 ft 22 kts 348°
2026-04-28 11:44 38.78549 -9.13560 352 ft 23 kts 348°
2026-04-28 11:45 38.78706 -9.13535 354 ft 24 kts 21°
2026-04-28 11:45 38.78862 -9.13452 358 ft 26 kts 22°
2026-04-28 11:45 38.79044 -9.13355 355 ft 29 kts 22°
2026-04-28 11:45 38.79227 -9.13257 357 ft 28 kts 22°
2026-04-28 11:46 38.79409 -9.13160 356 ft 28 kts 22°
2026-04-28 11:46 38.79591 -9.13063 355 ft 28 kts 22°
2026-04-28 11:46 38.79749 -9.12980 358 ft 19 kts 23°
2026-04-28 11:46 38.79759 -9.12864 356 ft 15 kts 112°
2026-04-28 11:47 38.79708 -9.12755 356 ft 12 kts 163°
2026-04-28 11:47 38.79614 -9.12803 357 ft 33 kts 200°
2026-04-28 11:47 38.79163 -9.13041 361 ft 106 kts 203°
2026-04-28 11:47 38.78290 -9.13507 358 ft 163 kts 203°
2026-04-28 11:48 38.77176 -9.14111 818 ft 174 kts 201°
2026-04-28 11:48 38.76062 -9.14705 1591 ft 172 kts 201°
2026-04-28 11:48 38.74922 -9.15313 2011 ft 187 kts 202°
2026-04-28 11:48 38.73648 -9.15994 2283 ft 209 kts 202°
2026-04-28 11:49 38.72237 -9.16752 2488 ft 232 kts 203°
2026-04-28 11:49 38.70688 -9.17582 2764 ft 255 kts 203°
2026-04-28 11:49 38.69013 -9.18474 3364 ft 265 kts 204°
2026-04-28 11:49 38.67308 -9.19408 4086 ft 268 kts 208°
2026-04-28 11:50 38.65887 -9.20938 4786 ft 270 kts 237°
2026-04-28 11:50 38.65203 -9.23160 5461 ft 272 kts 264°
2026-04-28 11:50 38.65422 -9.25552 6151 ft 275 kts 291°
2026-04-28 11:50 38.66171 -9.27816 6824 ft 278 kts 298°
2026-04-28 11:51 38.67392 -9.29730 7438 ft 282 kts 323°
2026-04-28 11:51 38.69147 -9.30842 8097 ft 285 kts 347°